Temp_Advection
nan nan nan nan nan nan nan nan nan nan nan nan nan nan nan nan nan nan nan nan nan nan nan nan nan nan nan nan nan nan nan nan nan nan nan nan nan nan nan nan nan nan nan
nan 0 0 0 0 0 0 0 0 -0 -0 -0 -0 -0 -0 -0 -0 -0 -0 -0 -0 -0 -0 -0 -0 -0 -0 -0 -0 0 1 1 1 -1 -3 -4 -2 -2 -2 -2 -1 -1 nan
nan 0 0 0 0 0 0 0 0 -0 -0 -0 -0 -0 -0 -0 -0 -0 -0 -0 -0 -0 -0 -0 -0 -0 -0 -0 0 1 1 1 1 -0 -1 -3 -5 -3 -2 -2 -2 -2 nan
nan 0 1 1 0 0 0 0 0 -0 -0 -0 -0 -0 -0 -0 -0 -0 -0 -0 -0 -0 -0 0 0 0 1 0 0 0 0 -0 -1 -1 0 -1 -3 -3 -2 -5 -4 -1 nan
nan -0 0 1 1 0 0 0 0 0 -0 -0 -0 -0 -0 -0 -0 -0 -0 -0 -0 0 -0 0 0 -0 -0 1 0 -0 -0 -0 -0 -1 -1 -1 -1 -1 -1 -1 -2 -5 nan
nan -0 0 1 0 0 0 0 0 0 -0 -0 -0 -0 -0 -0 0 0 1 0 -1 -1 -1 -1 -0 -0 0 1 0 -0 -0 -0 -1 -1 -1 -1 -1 -1 -0 -0 -1 -2 nan
nan -0 0 0 0 0 0 0 0 0 -0 0 0 0 0 -0 -0 0 1 1 -0 -0 -0 -1 -0 -0 -0 -0 0 0 -0 -0 -1 -1 -1 -1 -0 -1 -1 -0 -0 -0 nan
nan -0 -0 0 0 1 0 0 0 0 0 0 0 0 0 -0 -0 0 0 0 0 -0 -0 -0 -0 -0 -0 -0 -0 -1 -1 -1 -1 0 0 -1 -0 1 -0 -1 -1 -1 nan
nan -0 -0 0 0 0 0 0 0 0 0 0 0 0 0 -0 -0 -0 1 0 -0 -0 -0 -0 -0 -0 -0 -0 -0 -0 -1 -2 0 1 0 0 -0 -0 -0 -0 -1 -1 nan
nan -0 -0 -0 0 0 0 1 0 0 0 0 0 0 0 -0 -0 0 0 0 -0 -0 -0 -0 0 -0 -0 -0 -0 -0 -1 -1 -2 -3 -2 1 2 2 1 -1 -0 -1 nan
nan -0 -0 -0 -0 0 1 1 0 0 0 0 0 0 0 -0 -0 0 0 0 -0 -0 -0 -0 -0 -0 0 1 1 0 -0 -1 -1 -2 -4 -4 -2 -0 0 -0 0 2 nan
nan -0 -0 -0 0 0 1 1 1 0 0 0 0 0 0 0 -0 0 0 -0 0 -1 -1 -0 0 0 -0 -0 1 2 1 -0 -1 -1 -2 -3 -4 -3 -1 -2 -0 1 nan
nan -0 -0 -0 0 0 1 1 1 0 0 0 0 0 0 0 0 -0 -0 -0 -0 -0 -0 -0 -0 -0 -0 -0 -0 0 1 1 -0 -1 -1 -2 -3 -4 -3 -1 -1 0 nan
nan -0 -0 -0 0 1 1 1 0 0 0 1 1 0 0 -0 0 -0 -0 -0 -0 -0 -0 -0 -0 -0 -0 -0 -0 -0 0 0 1 0 -1 -1 -2 -2 -3 -5 -3 -1 nan
nan -1 -0 -0 1 1 1 1 1 1 1 1 1 1 0 0 -0 0 -0 -0 -0 -0 -0 -0 -0 -0 -0 -0 -0 -0 -0 -0 0 1 1 1 -0 -1 -2 -4 -4 -2 nan
nan -1 -1 0 1 1 1 1 0 1 1 1 1 0 0 0 -0 -0 -0 0 -0 -0 -0 -0 -0 -1 -1 -1 -1 -1 -1 -0 -1 -0 0 1 0 1 -0 -2 -3 -3 nan
nan -1 -0 0 1 1 1 -0 0 1 1 1 0 0 0 -0 -0 -0 -0 -0 -0 -0 -0 -0 -0 -1 -1 -1 -1 -1 -1 -1 -1 -0 -0 -0 0 1 1 -0 -2 -3 nan
nan -0 -0 0 1 1 0 0 1 1 1 0 -0 0 0 -0 0 0 0 0 0 -0 -0 -0 -0 -0 -1 -0 -1 -0 -1 -1 -1 -1 -1 -0 1 -1 -1 0 -0 -1 nan
nan -0 0 0 1 1 0 1 1 1 0 -0 -0 0 0 0 0 0 0 0 -0 -0 -0 -0 -0 -0 -0 -0 -0 -1 -1 -1 -1 -1 -1 -0 -0 -1 -1 0 1 0 nan
nan 0 0 0 1 0 -0 0 1 0 -0 0 0 0 0 -0 0 0 0 0 -0 -0 -0 -0 -0 -0 -0 -0 -0 -0 -0 -0 0 -1 -1 -1 -1 -1 -0 -0 1 1 nan
nan -0 -0 0 0 -0 -0 1 0 0 0 0 0 0 0 0 0 0 0 0 -0 -0 -0 -0 -0 -0 -0 -0 -0 -0 -0 -1 0 -1 -1 -1 -1 -0 -0 -0 0 1 nan
nan -0 -0 0 0 0 1 1 0 0 0 0 0 0 0 0 0 0 0 0 -0 -0 -0 -0 -0 -0 -0 -0 -0 -0 -0 0 0 -0 -1 -1 -1 -0 -0 -1 -1 -0 nan
nan -0 0 0 0 1 0 0 0 0 0 0 0 -0 0 0 0 0 0 0 -0 -0 -0 -0 0 0 0 0 0 0 0 0 0 0 -0 -1 -1 -1 -0 -1 -1 -1 nan
nan 0 0 0 0 0 0 0 0 0 0 0 0 -0 0 0 0 0 0 0 -0 -0 -0 -0 -0 0 0 -0 0 0 0 0 0 0 0 -0 -0 -0 -0 -0 -0 -0 nan
nan 0 0 0 0 0 0 0 0 0 0 0 0 0 0 0 0 0 0 -0 -0 -0 -0 -0 -0 -0 -0 -0 -0 -0 -0 -0 0 0 0 -0 0 -0 -0 -0 -0 -0 nan
nan nan nan nan nan nan nan nan nan nan nan nan nan nan nan nan nan nan nan nan nan nan nan nan nan nan nan nan nan nan nan nan nan nan nan nan nan nan nan nan nan nan nan
Wind_Speed
10 11 11 11 10 9 9 9 9 9 9 9 9 10 11 12 12 13 14 15 16 16 18 19 19 20 20 20 20 20 22 22 26 30 30 29 30 31 30 28 29 29 32
11 13 14 15 14 13 11 11 10 10 10 10 10 10 11 12 13 14 15 16 17 18 19 20 20 21 22 22 22 23 24 24 26 32 30 32 34 34 36 37 35 35 36
17 19 18 18 17 16 14 12 11 10 10 11 11 11 12 13 14 15 16 17 18 19 19 20 21 22 23 23 24 24 25 25 26 30 33 30 34 36 38 38 38 38 37
23 24 23 20 18 18 16 14 12 11 11 11 12 12 13 13 14 15 16 17 18 20 21 21 21 21 21 21 22 23 23 25 27 31 36 33 31 31 33 35 39 36 37
19 21 20 19 20 19 18 16 14 13 12 12 12 13 13 13 13 13 15 16 17 18 18 19 20 21 23 23 24 24 25 28 31 34 39 36 31 26 27 28 36 39 45
15 18 21 21 22 21 20 18 15 14 13 13 13 13 13 13 13 14 14 15 16 17 19 19 20 22 23 24 26 27 29 33 37 38 42 41 37 35 32 33 36 37 44
17 16 17 20 23 23 22 21 17 16 15 14 14 13 13 13 14 15 14 14 15 16 17 18 19 19 22 23 25 26 29 31 35 39 47 48 47 38 35 37 39 42 47
19 18 17 19 22 23 25 22 19 17 16 15 14 14 14 14 15 15 15 15 14 15 16 17 19 21 21 22 25 29 31 33 35 37 42 46 49 45 42 43 46 49 54
21 18 17 18 21 25 26 23 21 19 17 15 14 14 15 15 16 15 15 13 13 15 17 18 18 20 21 21 24 28 32 35 34 36 40 43 45 45 44 46 53 47 59
23 19 18 19 22 25 25 24 22 20 18 17 15 15 15 16 16 16 13 11 16 17 17 16 17 18 19 20 23 26 31 35 35 40 43 45 45 45 40 42 47 53 55
22 24 24 22 23 24 25 26 23 21 19 17 16 15 15 16 16 15 11 13 15 17 18 17 17 17 17 19 20 23 26 29 34 36 40 42 42 41 39 39 42 46 54
23 24 27 25 23 25 27 27 25 23 20 18 16 14 14 14 14 13 9 11 12 15 17 17 16 16 18 19 20 19 21 24 25 28 32 37 40 42 33 37 42 41 43
23 24 26 26 25 26 28 29 27 24 21 19 16 15 14 13 11 11 10 10 10 12 13 14 14 16 16 16 16 17 18 20 21 25 29 34 36 40 40 41 39 39 38
23 22 23 26 27 28 28 29 28 26 23 20 16 13 12 10 8 8 10 9 8 8 9 10 11 12 13 13 13 14 16 18 21 23 28 32 35 35 35 35 32 37 35
23 22 23 26 27 28 29 30 28 25 21 18 15 13 9 7 5 8 8 6 8 7 7 7 7 8 10 12 13 15 17 19 23 26 28 31 33 32 32 30 32 28 38
23 23 24 25 25 29 28 28 25 21 19 16 13 12 7 8 8 8 5 5 5 5 5 7 10 12 15 18 19 20 19 20 25 28 29 31 33 32 32 34 30 34 30
23 23 24 23 25 27 26 27 26 20 14 16 14 13 11 10 8 4 2 0 2 4 7 12 14 16 18 19 21 22 24 22 27 28 30 32 33 35 36 35 32 32 39
20 22 23 24 24 25 25 27 23 20 20 15 15 12 11 9 6 5 4 2 3 6 10 13 16 18 20 21 22 23 27 26 29 29 30 32 35 37 37 34 31 30 30
18 20 22 22 23 25 27 27 25 20 19 17 16 13 11 9 10 8 6 3 4 7 10 13 16 18 21 22 23 24 28 27 29 32 31 34 33 34 37 35 33 29 27
9 13 21 21 21 22 27 27 22 21 21 19 17 14 14 13 11 8 6 3 4 6 9 12 15 18 21 23 24 26 31 31 32 33 33 33 34 33 36 38 37 35 30
6 9 13 16 21 25 25 25 23 22 21 18 16 14 15 15 13 9 5 2 2 4 7 11 13 16 18 22 23 29 31 37 39 33 33 33 33 35 36 35 37 39 35
6 10 18 13 21 23 22 23 23 22 20 18 15 13 17 16 13 9 5 2 3 4 6 8 11 15 17 19 22 27 31 33 43 35 32 33 32 32 35 36 36 37 38
7 10 16 11 17 18 19 20 21 20 19 18 18 17 18 15 13 9 4 1 3 5 7 8 9 12 15 15 18 19 24 29 41 36 30 32 32 31 33 35 36 37 36
4 8 12 10 15 18 18 18 18 18 18 18 18 18 17 15 12 7 3 1 3 5 7 9 8 10 13 15 14 16 19 24 37 34 27 28 30 29 31 32 34 34 35
2 6 7 10 14 16 15 15 16 16 16 16 18 19 18 16 11 6 3 2 5 6 7 8 8 8 11 13 14 15 16 22 35 34 26 27 29 28 29 30 31 31 33
0 3 7 10 12 12 13 14 14 14 14 16 18 19 18 15 10 5 4 4 6 7 5 7 7 8 11 13 13 14 12 17 30 33 27 26 27 31 29 28 29 30 30
Wind_Direction
255 259 264 269 274 280 289 294 297 299 298 297 293 289 285 283 281 277 272 269 266 264 264 263 262 262 263 264 266 266 267 265 267 276 280 284 287 289 287 282 279 273 266
264 266 270 271 271 270 274 280 289 295 297 298 298 295 292 288 283 278 274 272 271 269 267 266 264 265 264 264 265 266 267 267 270 277 280 283 284 287 290 291 288 285 284
285 281 275 270 264 261 261 267 275 285 293 298 299 297 296 294 291 286 281 277 275 272 269 269 267 267 267 267 266 267 269 270 271 274 280 281 284 287 289 288 289 289 287
281 278 275 268 261 254 254 258 267 277 285 291 294 297 297 296 294 291 288 283 279 275 271 269 267 265 267 269 270 270 271 271 273 275 279 282 283 285 285 287 289 289 288
267 264 265 263 255 246 246 252 258 268 279 286 292 296 297 297 298 295 290 286 282 278 274 272 270 269 268 267 268 272 275 277 278 281 281 281 279 279 278 284 282 288 288
279 272 263 254 247 240 239 244 250 260 271 280 288 293 297 300 297 292 288 286 282 279 277 274 273 273 275 272 269 267 267 270 273 274 276 275 276 277 277 276 281 282 285
277 280 268 252 244 238 237 242 246 255 265 275 283 289 295 298 297 294 288 285 280 277 277 278 278 275 275 275 276 275 272 269 266 269 271 273 276 276 278 279 275 274 272
270 274 270 256 245 236 236 238 242 251 260 269 277 286 292 297 299 299 299 294 283 282 282 282 280 280 278 279 281 281 279 279 277 275 274 278 279 280 276 274 274 274 274
267 268 270 260 248 238 236 238 242 249 257 264 272 280 289 297 302 307 306 297 289 284 284 283 283 283 283 284 285 285 284 284 284 280 279 279 277 276 273 273 269 271 272
271 265 265 260 248 241 238 237 241 248 254 260 269 278 290 301 308 308 305 303 294 293 293 289 284 285 289 291 292 292 290 290 291 290 288 289 290 290 281 268 266 259 261
278 262 258 258 253 242 235 234 237 243 250 257 265 276 288 300 307 306 306 297 295 296 293 294 290 292 298 299 297 290 289 300 297 295 298 299 298 296 291 282 274 269 262
278 265 256 254 251 240 232 231 232 237 244 251 261 272 283 295 302 306 304 296 296 291 298 299 295 298 299 302 304 308 309 308 305 306 305 306 303 301 288 287 280 281 276
277 268 257 253 248 239 231 228 228 233 239 245 254 267 279 293 300 309 311 315 309 310 312 307 298 300 302 307 312 319 325 328 324 317 312 311 310 303 290 273 269 272 277
273 268 255 248 244 236 229 224 226 230 234 239 247 256 270 286 298 322 313 318 319 321 324 325 312 303 303 308 315 326 337 344 335 326 320 320 319 313 299 281 272 261 266
268 262 252 246 239 231 228 225 224 231 234 238 239 246 254 266 286 294 297 315 324 335 336 326 338 349 356 359 356 348 344 349 347 345 342 338 331 318 308 305 276 275 257
263 256 251 246 231 226 224 219 219 225 228 231 234 240 249 260 264 279 297 311 322 343 347 5 13 13 11 7 5 3 358 355 355 351 350 352 343 326 329 324 306 283 276
260 251 248 240 227 221 211 211 211 210 213 210 218 235 230 237 259 253 263 321 35 30 37 35 28 23 17 13 7 5 359 1 358 355 356 353 345 354 348 335 321 300 280
260 248 243 236 225 215 206 208 204 203 196 205 212 227 222 235 220 192 175 141 74 51 44 39 32 25 19 14 9 5 4 3 357 358 358 353 357 357 353 347 334 318 297
263 247 233 230 216 209 205 205 212 203 204 211 215 222 209 202 193 183 182 160 79 52 45 38 31 26 20 15 10 7 6 3 352 360 357 359 358 355 352 352 351 336 316
263 236 219 222 204 189 200 211 204 198 204 208 212 213 200 190 184 182 170 123 72 57 40 29 26 23 19 17 13 8 7 6 357 358 358 359 357 359 355 354 356 353 350
240 212 221 213 196 206 211 206 200 195 198 203 207 205 193 187 188 182 171 132 68 30 23 23 23 19 17 17 15 11 10 10 1 355 357 357 358 1 0 360 0 2 5
232 207 208 214 209 209 205 200 194 191 193 200 197 179 187 187 186 180 168 120 37 16 12 12 15 15 12 12 11 11 9 2 357 355 355 357 358 3 2 4 5 7 7
232 220 218 221 209 202 197 196 191 188 189 197 197 191 183 184 180 175 169 119 22 15 8 1 5 11 12 11 13 8 9 1 349 354 353 356 1 5 5 7 9 12 13
223 209 206 211 192 191 196 193 191 189 188 195 199 193 188 184 180 183 190 279 332 339 352 357 359 5 10 17 17 17 15 1 348 356 355 359 4 8 8 10 11 13 18
211 196 198 191 183 194 194 193 191 191 191 192 196 192 190 186 187 193 211 294 323 320 318 340 350 359 7 14 21 17 18 352 356 358 2 4 9 10 12 12 13 18 20
69 189 194 191 191 195 196 194 196 193 192 190 195 194 193 193 198 215 250 298 319 323 308 326 337 346 354 360 10 19 24 347 355 6 6 9 10 13 12 12 15 20 23
Height
1492 1492 1493 1493 1493 1493 1494 1494 1494 1493 1492 1492 1491 1490 1489 1488 1487 1487 1487 1488 1490 1490 1491 1491 1492 1491 1491 1490 1490 1490 1490 1490 1485 1483 1482 1482 1481 1480 1481 1482 1481 1481 1481
1489 1489 1489 1489 1490 1491 1491 1491 1491 1490 1490 1489 1488 1487 1486 1485 1485 1484 1485 1485 1485 1485 1486 1487 1487 1486 1486 1486 1485 1484 1484 1484 1482 1476 1476 1475 1474 1473 1472 1471 1472 1471 1470
1484 1484 1485 1486 1487 1488 1488 1488 1488 1488 1487 1486 1485 1484 1484 1483 1482 1481 1481 1481 1480 1481 1481 1481 1481 1480 1480 1479 1479 1478 1478 1477 1476 1471 1466 1467 1466 1466 1464 1463 1461 1460 1461
1480 1480 1480 1481 1482 1483 1484 1485 1485 1485 1485 1484 1483 1482 1481 1480 1479 1478 1477 1477 1476 1476 1475 1475 1475 1474 1473 1473 1473 1473 1472 1471 1469 1465 1459 1458 1459 1458 1456 1454 1451 1450 1449
1476 1475 1475 1477 1477 1479 1480 1481 1482 1482 1481 1481 1480 1479 1478 1477 1476 1474 1473 1472 1471 1470 1470 1469 1468 1467 1466 1466 1466 1466 1466 1465 1462 1457 1452 1451 1450 1451 1451 1450 1444 1440 1437
1471 1470 1471 1471 1472 1474 1476 1477 1478 1478 1478 1478 1477 1476 1474 1474 1472 1470 1469 1469 1468 1466 1464 1463 1461 1460 1459 1459 1459 1459 1460 1458 1454 1451 1445 1441 1442 1443 1443 1442 1437 1433 1425
1465 1465 1464 1465 1466 1468 1470 1471 1472 1473 1474 1474 1473 1472 1471 1470 1468 1467 1465 1464 1463 1461 1459 1457 1455 1454 1453 1452 1451 1450 1449 1447 1444 1442 1433 1432 1430 1435 1436 1431 1428 1423 1414
1460 1460 1459 1459 1460 1462 1464 1465 1467 1468 1469 1469 1468 1468 1467 1466 1463 1461 1459 1457 1456 1455 1453 1451 1449 1447 1446 1445 1443 1441 1438 1435 1433 1429 1424 1421 1418 1422 1422 1420 1416 1408 1399
1454 1454 1454 1454 1454 1456 1457 1460 1461 1463 1463 1464 1464 1463 1462 1460 1457 1455 1453 1451 1450 1449 1447 1444 1442 1440 1438 1438 1436 1432 1428 1424 1422 1417 1412 1409 1406 1406 1409 1407 1399 1400 1379
1447 1448 1448 1448 1448 1449 1452 1454 1456 1457 1458 1458 1458 1457 1456 1453 1451 1450 1448 1447 1445 1443 1440 1437 1435 1433 1431 1430 1428 1425 1419 1414 1409 1402 1397 1393 1390 1388 1390 1390 1386 1382 1377
1440 1440 1440 1441 1442 1444 1446 1447 1449 1451 1452 1452 1452 1452 1450 1448 1446 1444 1443 1443 1440 1437 1433 1430 1428 1426 1425 1423 1420 1416 1411 1406 1399 1392 1385 1380 1375 1372 1372 1372 1370 1368 1363
1432 1432 1432 1433 1435 1436 1438 1440 1442 1444 1446 1447 1447 1447 1446 1444 1443 1440 1439 1438 1434 1431 1427 1425 1423 1421 1418 1415 1411 1407 1403 1398 1391 1385 1378 1371 1365 1360 1360 1360 1356 1353 1348
1424 1424 1424 1426 1427 1428 1430 1433 1435 1438 1440 1441 1442 1442 1441 1441 1439 1436 1434 1431 1429 1426 1423 1421 1418 1416 1412 1409 1405 1401 1396 1391 1386 1381 1373 1365 1359 1352 1347 1347 1345 1341 1336
1417 1417 1417 1418 1420 1421 1423 1426 1429 1431 1434 1436 1437 1437 1437 1437 1436 1434 1432 1428 1426 1423 1421 1418 1415 1412 1409 1405 1401 1397 1393 1388 1383 1377 1369 1360 1352 1345 1339 1336 1333 1329 1326
1409 1409 1410 1411 1412 1414 1417 1419 1422 1426 1429 1431 1432 1433 1433 1434 1433 1432 1428 1426 1424 1421 1418 1416 1413 1409 1405 1401 1397 1393 1388 1383 1379 1373 1364 1355 1346 1340 1333 1326 1321 1318 1313
1402 1402 1402 1403 1405 1407 1410 1413 1417 1421 1424 1426 1427 1428 1430 1429 1429 1427 1425 1424 1422 1419 1416 1413 1409 1406 1402 1398 1393 1389 1385 1381 1376 1368 1360 1351 1343 1336 1322 1314 1310 1308 1303
1394 1394 1395 1396 1398 1400 1403 1408 1412 1416 1419 1422 1423 1424 1425 1426 1424 1424 1423 1422 1420 1418 1414 1410 1407 1404 1401 1397 1393 1388 1383 1379 1373 1365 1356 1348 1342 1327 1315 1307 1301 1298 1292
1386 1386 1388 1389 1391 1394 1399 1403 1407 1411 1414 1416 1418 1420 1421 1421 1422 1422 1422 1421 1419 1416 1413 1410 1407 1403 1400 1396 1392 1387 1381 1374 1369 1361 1354 1347 1334 1322 1316 1309 1301 1293 1284
1379 1379 1381 1383 1386 1389 1394 1399 1402 1406 1410 1412 1414 1416 1418 1419 1420 1420 1421 1420 1418 1415 1412 1410 1406 1403 1400 1395 1391 1385 1379 1373 1369 1358 1352 1341 1333 1326 1318 1308 1297 1289 1279
1373 1374 1376 1378 1382 1386 1389 1394 1398 1401 1405 1408 1411 1412 1414 1416 1418 1419 1419 1418 1416 1414 1411 1409 1405 1402 1399 1394 1389 1384 1377 1371 1364 1356 1349 1341 1335 1328 1317 1307 1296 1284 1274
1374 1374 1375 1377 1381 1383 1386 1390 1394 1398 1402 1405 1407 1409 1412 1414 1416 1417 1416 1415 1414 1413 1410 1408 1404 1401 1398 1393 1388 1383 1376 1370 1365 1358 1350 1342 1335 1327 1317 1307 1295 1282 1270
1373 1374 1375 1377 1379 1382 1385 1388 1391 1395 1399 1402 1405 1407 1409 1411 1413 1414 1414 1414 1412 1411 1409 1406 1403 1400 1397 1392 1388 1382 1377 1371 1366 1358 1351 1343 1335 1326 1318 1307 1296 1284 1271
1372 1373 1375 1376 1378 1381 1384 1386 1389 1393 1396 1400 1402 1404 1407 1409 1411 1412 1412 1412 1411 1409 1407 1405 1402 1399 1396 1392 1388 1384 1379 1373 1366 1358 1351 1344 1336 1327 1319 1310 1300 1289 1278
1373 1373 1375 1376 1378 1381 1383 1386 1389 1392 1394 1397 1400 1402 1405 1407 1409 1410 1410 1410 1409 1407 1405 1403 1400 1398 1395 1392 1388 1385 1381 1376 1369 1359 1352 1345 1337 1330 1323 1314 1305 1296 1287
1374 1374 1375 1377 1379 1380 1383 1385 1388 1390 1392 1395 1397 1400 1403 1405 1407 1407 1408 1408 1407 1405 1403 1401 1399 1397 1394 1392 1388 1385 1380 1378 1370 1361 1353 1347 1340 1333 1326 1319 1311 1303 1294
1375 1375 1376 1377 1379 1381 1383 1385 1387 1389 1391 1393 1396 1398 1401 1403 1404 1405 1406 1405 1404 1403 1401 1399 1397 1395 1393 1390 1388 1385 1381 1377 1372 1363 1355 1349 1343 1336 1330 1324 1317 1309 1303